Location: Kuppenheim
(48.8299°N, 8.2568°E)
Time: 10:02:26
(UTC+00:00)

Meteor 2-6 Rocket - Pass Details

Date: 20 June 2021
Orbit: 805 x 915 km, 81.3° (Epoch: 27 July)

Event Time Altitude Azimuth Distance (km) Brightness Sun altitude
Rises 02:31:00 0° 347° (NNW) 3,552 8.0 -7.1°
Reaches altitude 10° 02:33:30 10° 347° (NNW) 2,598 7.3 -6.8°
Maximum altitude 02:39:27 83° 260° (W) 903 4.3 -6.1°
Drops below altitude 10° 02:45:12 10° 174° (S) 2,516 6.3 -5.5°
Sets 02:47:35 0° 173° (S) 3,433 7.0 -5.2°
